Simultaneous Nadir Overpasses (SNOs) Predictions

Prediction of SNOs between LANDSAT-8 and NOAA-19 Satellite Orbit:

Table of predicted SNOs for the next 14.0 days since TLE Epoch: 11/4/2017
Index Date (LANDSAT-8) Time (LANDSAT-8) Lat,Lon (LANDSAT-8) SZA (LANDSAT-8 ) Date (NOAA-19) Time (NOAA-19) Lat,Lon (NOAA-19) SZA (NOAA-19 ) Distance(km) Time Diff (sec)
1 11/05/2017 19:24:21 -76.80, 79.79 86.94 11/05/2017 19:23:58 -76.81, 79.66 86.94 3.46 23
2 11/05/2017 20:13:48 76.74,-112.78 93.01 11/05/2017 20:15:00 76.74,-112.79 93.02 0.79 72
3 11/08/2017 00:58:04 76.80, 176.33 93.72 11/08/2017 00:57:45 76.82, 176.25 93.73 3.20 19
4 11/08/2017 01:47:32 -76.77, -16.14 86.31 11/08/2017 01:48:41 -76.77, -16.27 86.30 3.36 69
5 11/10/2017 06:31:48 -76.82, -87.03 85.63 11/10/2017 06:31:25 -76.83, -87.14 85.63 3.11 23
6 11/10/2017 07:21:15 76.75, 80.38 94.31 11/10/2017 07:22:28 76.76, 80.39 94.33 0.77 73
7 11/12/2017 12:05:31 76.80, 9.47 94.96 11/12/2017 12:05:12 76.81, 9.58 94.97 3.05 19
8 11/12/2017 12:54:59 -76.77, 177.02 85.07 11/12/2017 12:56:07 -76.75, 177.09 85.07 3.10 68
9 11/14/2017 17:39:15 -76.81, 106.10 84.45 11/14/2017 17:38:51 -76.82, 106.19 84.44 2.45 24
10 11/14/2017 18:28:41 76.79, -86.34 95.54 11/14/2017 18:29:55 76.75, -86.32 95.53 4.10 74
11 11/16/2017 23:12:57 76.83,-157.28 96.13 11/16/2017 23:12:39 76.81,-157.17 96.11 3.27 18




NCC Satellite Simultaneous Nadir Overpasses (SNOs) Prediction Service
